カタログに戻る

COSMOS 2023

GLONASS

運用中ナビゲーションMEO
NORAD 20025·PAYLOAD·🇷🇺 Russia

打ち上げ May 31, 1989 から Baikonur Cosmodrome

Loading…

次のパス (今後24時間)

TLE

最新Source: Space-Track

元期: Sep 14, 2026, 19:05 UTC

1 20025U 89039B   26257.79564103 -.00000049  00000-0  00000-0 0  9999
2 20025  64.9018 308.0959 0021593 199.7704 160.5722  2.13104152290171

AllMySatでCOSMOS 2023をリアルタイム追跡

Download on the App Store